Weather History for Madisonville, KY

Change the Weather History Date:

Sunday, February 17, 2013

  Actual Average (KOWB) Record (KOWB)
Temperature  
Mean Temperature 33 °F -  
Max Temperature 45 °F 47 °F 70 °F (1986)
Min Temperature 21 °F 28 °F -6 °F (1958)
Degree Days  
Heating Degree Days 32    
Moisture  
Dew Point 20 °F    
Average Humidity 59    
Maximum Humidity 94    
Minimum Humidity 33    
Precipitation  
Precipitation 0.00 in - - ()
Sea Level Pressure  
Sea Level Pressure 30.20 in    
Wind  
Wind Speed 3 mph (South)    
Max Wind Speed 10 mph    
Max Gust Speed -    
Visibility 10 miles    
Events      
Averages and records for this station are not official NWS values.
T = Trace of Precipitation, MM = Missing Value Source: NWS Daily Summary

Daily Weather History Graph

Daily Weather History Graph

Search for Another Location

Airport:

Trip Planner

Search our weather history database for the weather conditions in past years. The results will help you decide how hot, cold, wet, or windy it might be!

Date:

Astronomy

Feb. 17, 2013 Rise Set
Actual Time 6:36 AM CST 5:31 PM CST
Civil Twilight 6:09 AM CST 5:58 PM CST
Nautical Twilight 5:38 AM CST 6:28 PM CST
Astronomical Twilight 5:08 AM CST 6:59 PM CST
Moon 10:38 AM CST (2/17) 12:17 AM CST (2/17)
Length of Visible Light 11h 48m
Length of Day
10h 55m
Waxing Crescent, 49% of the Moon is Illuminated
Feb 17
Waxing Crescent
Feb 17
First Quarter
Feb 25
Full
Mar 4
Last Quarter
Mar 11
New

Hourly Weather History & Observations

Time (CST) Temp. Windchill Dew Point Humidity Pressure Visibility Wind Dir Wind Speed Gust Speed Precip Events Conditions
12:15 AM 25.0 °F 19.3 °F 18.7 °F 77% 30.20 in 10.0 mi West 4.6 mph - N/A   Clear
12:35 AM 24.8 °F 19.1 °F 18.9 °F 78% 30.20 in 10.0 mi West 4.6 mph - N/A   Clear
12:55 AM 24.1 °F 18.2 °F 18.7 °F 80% 30.20 in 10.0 mi West 4.6 mph - N/A   Clear
1:15 AM 25.0 °F 17.1 °F 18.1 °F 75% 30.20 in 10.0 mi West 6.9 mph - N/A   Clear
1:35 AM 25.2 °F 18.3 °F 18.0 °F 74% 30.20 in 10.0 mi West 5.8 mph - N/A   Clear
1:55 AM 25.0 °F 19.3 °F 17.6 °F 74% 30.19 in 10.0 mi West 4.6 mph - N/A   Clear
2:15 AM 23.9 °F 18.0 °F 18.5 °F 80% 30.20 in 10.0 mi WSW 4.6 mph - N/A   Clear
2:35 AM 23.9 °F 19.5 °F 18.0 °F 78% 30.20 in 10.0 mi SW 3.5 mph - N/A   Clear
2:55 AM 23.0 °F - 17.2 °F 79% 30.19 in 10.0 mi Calm Calm - N/A   Clear
3:15 AM 24.3 °F - 17.1 °F 74% 30.19 in 10.0 mi Calm Calm - N/A   Clear
3:35 AM 22.3 °F - 19.2 °F 88% 30.19 in 10.0 mi Calm Calm - N/A   Clear
3:55 AM 22.1 °F - 19.4 °F 89% 30.20 in 10.0 mi Calm Calm - N/A   Clear
4:15 AM 22.5 °F - 18.1 °F 83% 30.20 in 10.0 mi Calm Calm - N/A   Clear
4:35 AM 22.5 °F - 17.6 °F 82% 30.20 in 10.0 mi Calm Calm - N/A   Clear
4:55 AM 21.9 °F - 17.6 °F 83% 30.21 in 10.0 mi Calm Calm - N/A   Clear
5:15 AM 21.4 °F - 17.6 °F 85% 30.22 in 10.0 mi Calm Calm - N/A   Clear
5:35 AM 21.2 °F - 18.5 °F 89% 30.22 in 10.0 mi Calm Calm - N/A   Clear
5:55 AM 21.6 °F - 18.9 °F 89% 30.23 in 10.0 mi Calm Calm - N/A   Clear
6:15 AM 21.2 °F - 19.8 °F 94% 30.23 in 10.0 mi Calm Calm - N/A   Clear
6:35 AM 21.2 °F - 19.4 °F 93% 30.23 in 10.0 mi Calm Calm - N/A   Clear
6:55 AM 21.7 °F - 20.3 °F 94% 30.24 in 10.0 mi Calm Calm - N/A   Clear
7:15 AM 22.1 °F - 19.8 °F 91% 30.25 in 10.0 mi Calm Calm - N/A   Clear
7:35 AM 24.3 °F - 21.0 °F 87% 30.26 in 10.0 mi Calm Calm - N/A   Clear
7:55 AM 27.0 °F - 21.4 °F 79% 30.27 in 10.0 mi Calm Calm - N/A   Clear
8:15 AM 28.4 °F - 21.6 °F 76% 30.28 in 10.0 mi Calm Calm - N/A   Clear
8:35 AM 31.1 °F - 22.5 °F 70% 30.28 in 10.0 mi Calm Calm - N/A   Clear
8:55 AM 32.0 °F - 22.1 °F 67% 30.28 in 10.0 mi Calm Calm - N/A   Clear
9:15 AM 33.1 °F 30.0 °F 20.1 °F 59% 30.28 in 10.0 mi SSE 3.5 mph - N/A   Clear
9:35 AM 33.8 °F 29.6 °F 20.5 °F 58% 30.27 in 10.0 mi East 4.6 mph - N/A   Clear
9:55 AM 34.9 °F 32.0 °F 20.3 °F 55% 30.27 in 10.0 mi ESE 3.5 mph - N/A   Clear
10:15 AM 36.1 °F - 19.2 °F 50% 30.28 in 10.0 mi Calm Calm - N/A   Clear
10:35 AM 37.9 °F - 19.0 °F 47% 30.28 in 10.0 mi Calm Calm - N/A   Clear
10:55 AM 38.3 °F - 17.6 °F 43% 30.27 in 10.0 mi Calm Calm - N/A   Clear
11:15 AM 39.6 °F - 18.0 °F 42% 30.27 in 10.0 mi Calm Calm - N/A   Clear
11:35 AM 40.3 °F 38.2 °F 16.5 °F 38% 30.26 in 10.0 mi SSW 3.5 mph - N/A   Clear
11:55 AM 41.5 °F - 17.8 °F 38% 30.25 in 10.0 mi Calm Calm - N/A   Clear
12:15 PM 42.1 °F 39.2 °F 18.1 °F 38% 30.24 in 10.0 mi SW 4.6 mph - N/A   Clear
12:35 PM 43.2 °F 38.4 °F 19.6 °F 39% 30.23 in 10.0 mi WSW 8.1 mph - N/A   Scattered Clouds
12:55 PM 44.4 °F 42.0 °F 19.6 °F 37% 30.22 in 10.0 mi SW 4.6 mph - N/A   Mostly Cloudy
1:15 PM 44.8 °F - 18.7 °F 35% 30.21 in 10.0 mi Calm Calm - N/A   Overcast
1:35 PM 45.0 °F 42.6 °F 19.2 °F 36% 30.21 in 10.0 mi West 4.6 mph - N/A   Mostly Cloudy
1:55 PM 45.5 °F 41.8 °F 20.1 °F 36% 30.20 in 10.0 mi West 6.9 mph - N/A   Scattered Clouds
2:15 PM 45.5 °F 43.2 °F 19.4 °F 35% 30.19 in 10.0 mi South 4.6 mph - N/A   Clear
2:35 PM 45.1 °F - 17.6 °F 33% 30.18 in 10.0 mi Calm Calm - N/A   Mostly Cloudy
2:55 PM 45.3 °F 42.3 °F 18.3 °F 34% 30.18 in 10.0 mi South 5.8 mph - N/A   Overcast
3:15 PM 45.1 °F 41.4 °F 18.3 °F 34% 30.18 in 10.0 mi South 6.9 mph - N/A   Overcast
3:35 PM 45.0 °F 41.2 °F 19.2 °F 36% 30.17 in 10.0 mi South 6.9 mph - N/A   Overcast
3:55 PM 45.3 °F 42.3 °F 19.9 °F 36% 30.17 in 10.0 mi South 5.8 mph - N/A   Overcast
4:15 PM 44.8 °F 41.6 °F 20.8 °F 39% 30.17 in 10.0 mi SSW 5.8 mph - N/A   Overcast
4:35 PM 45.5 °F 42.5 °F 21.4 °F 38% 30.16 in 10.0 mi South 5.8 mph - N/A   Overcast
4:55 PM 44.6 °F 40.2 °F 22.3 °F 41% 30.16 in 10.0 mi South 8.1 mph - N/A   Mostly Cloudy
5:15 PM 43.3 °F 39.9 °F 21.6 °F 42% 30.15 in 10.0 mi South 5.8 mph - N/A   Scattered Clouds
5:35 PM 41.9 °F 38.2 °F 21.2 °F 44% 30.14 in 10.0 mi SSE 5.8 mph - N/A   Clear
6:15 PM 40.8 °F 37.8 °F 21.6 °F 46% 30.14 in 10.0 mi SSE 4.6 mph - N/A   Clear
6:35 PM 39.9 °F 36.7 °F 21.7 °F 48% 30.15 in 10.0 mi South 4.6 mph - N/A   Clear
6:55 PM 39.7 °F 37.6 °F 21.6 °F 48% 30.14 in 10.0 mi SSE 3.5 mph - N/A   Clear
7:15 PM 39.0 °F 36.8 °F 21.7 °F 50% 30.14 in 10.0 mi SSE 3.5 mph - N/A   Clear
7:35 PM 38.7 °F 35.2 °F 21.7 °F 51% 30.14 in 10.0 mi SSE 4.6 mph - N/A   Clear
7:55 PM 38.3 °F 34.8 °F 21.7 °F 51% 30.14 in 10.0 mi SE 4.6 mph - N/A   Clear
8:15 PM 38.3 °F 33.9 °F 21.6 °F 51% 30.14 in 10.0 mi SSE 5.8 mph - N/A   Clear
8:35 PM 38.3 °F 33.9 °F 21.6 °F 51% 30.14 in 10.0 mi SSE 5.8 mph - N/A   Clear
8:55 PM 37.9 °F 35.5 °F 21.6 °F 52% 30.15 in 10.0 mi South 3.5 mph - N/A   Clear
9:15 PM 37.4 °F - 21.6 °F 53% 30.15 in 10.0 mi Calm Calm - N/A   Clear
9:35 PM 37.4 °F 34.9 °F 21.6 °F 53% 30.15 in 10.0 mi South 3.5 mph - N/A   Clear
9:55 PM 36.9 °F 33.1 °F 21.6 °F 54% 30.14 in 10.0 mi South 4.6 mph - N/A   Clear
10:15 PM 36.9 °F 32.2 °F 21.9 °F 55% 30.14 in 10.0 mi South 5.8 mph - N/A   Clear
10:35 PM 37.4 °F 31.4 °F 22.1 °F 54% 30.13 in 10.0 mi South 8.1 mph - N/A   Clear
10:55 PM 37.9 °F 31.5 °F 22.1 °F 53% 30.13 in 10.0 mi South 9.2 mph - N/A   Clear
11:15 PM 37.4 °F 31.4 °F 22.8 °F 56% 30.12 in 10.0 mi South 8.1 mph - N/A   Clear
11:35 PM 37.4 °F 31.4 °F 22.8 °F 56% 30.12 in 10.0 mi South 8.1 mph - N/A   Clear
11:55 PM 38.5 °F 31.6 °F 22.6 °F 53% 30.11 in 10.0 mi South 10.4 mph - N/A   Clear